Location: Arrodets-la-Barthe
(43.0306°N, 0.2829°E)
Time: 01:38:14
(UTC+00:00)

NOAA 19 - Pass Details

Date: 07 April 2023
Orbit: 840 x 859 km, 99.1° (Epoch: 29 May)

Event Time Altitude Azimuth Distance (km) Brightness Sun altitude
Exits shadow 20:35:49 - 193° (SSW) 2,929 7.8 -21.8°
Reaches altitude 10° 20:37:08 10° 199° (SSW) 2,459 7.5 -22.0°
Maximum altitude 20:42:02 34° 263° (W) 1,370 6.7 -22.7°
Drops below altitude 10° 20:46:57 10° 327° (NNW) 2,467 8.6 -23.4°
Sets 20:49:33 0° 337° (NNW) 3,406 9.3 -23.8°
